SPACEBEE-34 (46933 NORAD) Tracking and Keplerian Element Data

This shows tracking and keplerian element data for the satellite.

Feedback or suggestion? Click here.




ElementValue
Catalog46933
NameSPACEBEE-34
Epoch Orbit935
Epoch Day20.62140565
Epoch Year2021
RAAN159.9996
Inclination97.3745
Eccentricity0.001737
Argument of Perigee85.5438
Mean Anonmoly274.778
Mean Motion15.21776285
Decay Rate3.815E-05
L11 46933U 20085E 21020.62140565 .00003815 00000-0 17059-3 0 9996
L22 46933 97.3745 159.9996 0017370 85.5438 274.7780 15.21776285 9357

Live tracking and technical data element details for SPACEBEE-34 (NORAD 46933). SPACEBEE-34 can be tracked NOW for your location showing map with azimuth and elevation plus other details from your city location.

Track the satellite on the map from your city or location and see movement details for azimuth, elevation, latitude, longitude, range, height, and movement on the map or in text.







IsCatalogInMostPopularTable: catalog: 46933, numindb: 23
Update: records affected: 1



GetName: 46933 SPACEBEE-34

Hit Count: updated at: Fri, 22 Jan 2021 20:10:33 GMT